^^
Saratoga-Weather Station Historical Data
Daily Summary for March 2, 2021 Units:  Metric    English   Both
Daily Weekly Monthly Yearly Custom
  High: Low: Average:
Temperature: 27.3 °C 12.9 °C 19.1 °C
Dew Point: 18.4 °C 7.8 °C 12.1 °C
Humidity: 92% 52% 65%
Wind Speed: 16.3km/h 0km/h 2.2km/h
Wind Gust: 16.1km/h - -
Wind- - SE
Pressure: 1013.5 hPa 1012.2 hPa -
Precipitation: 8.4 mm    
Historical Graphs
 
 
Tabular Data for March 2, 2021
Time Temperature Dew Point Pressure Wind Wind Speed Wind Gust Humidity Rainfall Rate (Hourly) solar
00:02 15.6 °C 9 °C 1012.5 hPa Calm     65% 0.0 mm 0 W/m2
00:07 15.4 °C 8.9 °C 1012.5 hPa Calm     65% 0.0 mm 0 W/m2
00:12 15.3 °C 9 °C 1012.5 hPa Calm     66% 0.0 mm 0 W/m2
00:17 15.2 °C 8.7 °C 1012.5 hPa Calm     65% 0.0 mm 0 W/m2
00:22 15.1 °C 8.8 °C 1012.5 hPa SSE 1.4 km/h 1.6 km/h 66% 0.0 mm 0 W/m2
00:27 14.9 °C 8.6 °C 1012.5 hPa SSE 1.4 km/h 4.8 km/h 66% 0.0 mm 0 W/m2
00:32 14.8 °C 8.7 °C 1012.5 hPa Calm   4.8 km/h 67% 0.0 mm 0 W/m2
00:37 14.8 °C 8.7 °C 1012.5 hPa Calm   4.8 km/h 67% 0.0 mm 0 W/m2
00:42 14.7 °C 8.6 °C 1012.5 hPa Calm   1.6 km/h 67% 0.0 mm 0 W/m2
00:47 14.7 °C 8.6 °C 1012.5 hPa Calm   1.6 km/h 67% 0.0 mm 0 W/m2
00:52 14.6 °C 8.5 °C 1012.5 hPa Calm   1.6 km/h 67% 0.0 mm 0 W/m2
00:57 14.4 °C 8.6 °C 1012.5 hPa Calm   4.8 km/h 68% 0.0 mm 0 W/m2
01:02 14.4 °C 8.3 °C 1012.5 hPa Calm   1.6 km/h 67% 0.0 mm 0 W/m2
01:07 14.3 °C 8.5 °C 1012.5 hPa Calm   6.4 km/h 68% 0.0 mm 0 W/m2
01:12 14.2 °C 8.4 °C 1012.5 hPa SSE 1.4 km/h 4.8 km/h 68% 0.0 mm 0 W/m2
01:17 14.2 °C 8.4 °C 1012.5 hPa Calm   1.6 km/h 68% 0.0 mm 0 W/m2
01:22 14.2 °C 8.4 °C 1012.5 hPa Calm   4.8 km/h 68% 0.0 mm 0 W/m2
01:27 14.2 °C 8.4 °C 1012.5 hPa Calm     68% 0.0 mm 0 W/m2
01:32 14.2 °C 8.2 °C 1012.5 hPa Calm   4.8 km/h 67% 0.0 mm 0 W/m2
01:38 14.2 °C 8.4 °C 1012.5 hPa Calm   4.8 km/h 68% 0.0 mm 0 W/m2
01:43 14.2 °C 8.2 °C 1012.5 hPa SSE 1.4 km/h 1.6 km/h 67% 0.0 mm 0 W/m2
01:48 14.2 °C 8.4 °C 1012.5 hPa SSE 1.4 km/h 4.8 km/h 68% 0.0 mm 0 W/m2
01:53 14.1 °C 8.3 °C 1012.5 hPa Calm   1.6 km/h 68% 0.0 mm 0 W/m2
01:58 14.1 °C 8.3 °C 1012.5 hPa SSE 1.4 km/h 1.6 km/h 68% 0.0 mm 0 W/m2
02:03 14 °C 8.2 °C 1012.5 hPa Calm     68% 0.0 mm 0 W/m2
02:08 13.9 °C 8.1 °C 1012.5 hPa Calm     68% 0.0 mm 0 W/m2
02:13 13.9 °C 8.1 °C 1012.5 hPa Calm     68% 0.0 mm 0 W/m2
02:18 13.9 °C 8.1 °C 1012.5 hPa Calm     68% 0.0 mm 0 W/m2
02:23 13.9 °C 8.1 °C 1012.5 hPa SSE 1.4 km/h 4.8 km/h 68% 0.0 mm 0 W/m2
02:28 13.9 °C 8.1 °C 1012.5 hPa SSE 1.4 km/h 1.6 km/h 68% 0.0 mm 0 W/m2
02:33 13.9 °C 8.3 °C 1012.5 hPa Calm   4.8 km/h 69% 0.0 mm 0 W/m2
02:38 13.8 °C 8 °C 1012.5 hPa Calm   1.6 km/h 68% 0.0 mm 0 W/m2
02:43 13.8 °C 8 °C 1012.2 hPa SSE 1.4 km/h 1.6 km/h 68% 0.0 mm 0 W/m2
02:48 13.8 °C 8.2 °C 1012.2 hPa SSE 1.4 km/h 1.6 km/h 69% 0.0 mm 0 W/m2
02:53 13.8 °C 8.2 °C 1012.2 hPa SSE 1.4 km/h 4.8 km/h 69% 0.0 mm 0 W/m2
02:58 13.8 °C 8.2 °C 1012.2 hPa Calm   1.6 km/h 69% 0.0 mm 0 W/m2
03:03 13.7 °C 7.9 °C 1012.2 hPa SSE 1.4 km/h 4.8 km/h 68% 0.0 mm 0 W/m2
03:08 13.7 °C 7.9 °C 1012.2 hPa Calm   4.8 km/h 68% 0.0 mm 0 W/m2
03:13 13.7 °C 8.1 °C 1012.2 hPa Calm   1.6 km/h 69% 0.0 mm 0 W/m2
03:18 13.7 °C 8.1 °C 1012.2 hPa Calm     69% 0.0 mm 0 W/m2
03:23 13.6 °C 8 °C 1012.2 hPa SSE 1.4 km/h 1.6 km/h 69% 0.0 mm 0 W/m2
03:28 13.6 °C 8 °C 1012.2 hPa Calm   1.6 km/h 69% 0.0 mm 0 W/m2
03:33 13.5 °C 7.9 °C 1012.5 hPa Calm     69% 0.0 mm 0 W/m2
03:38 13.4 °C 7.8 °C 1012.5 hPa Calm     69% 0.0 mm 0 W/m2
03:43 13.4 °C 8 °C 1012.5 hPa Calm     70% 0.0 mm 0 W/m2
03:48 13.4 °C 8.2 °C 1012.5 hPa Calm     71% 0.0 mm 0 W/m2
03:53 13.3 °C 7.9 °C 1012.5 hPa Calm     70% 0.0 mm 0 W/m2
03:58 13.3 °C 7.9 °C 1012.5 hPa Calm   1.6 km/h 70% 0.0 mm 0 W/m2
04:03 13.2 °C 8.1 °C 1012.5 hPa Calm     71% 0.0 mm 0 W/m2
04:08 13.2 °C 8.1 °C 1012.5 hPa Calm     71% 0.0 mm 0 W/m2
04:13 13.2 °C 8.3 °C 1012.2 hPa Calm     72% 0.0 mm 0 W/m2
04:18 13.2 °C 8.3 °C 1012.5 hPa Calm   1.6 km/h 72% 0.0 mm 0 W/m2
04:23 13.2 °C 8.3 °C 1012.5 hPa SSE 1.4 km/h 1.6 km/h 72% 0.0 mm 0 W/m2
04:28 13.3 °C 8.2 °C 1012.5 hPa Calm     71% 0.0 mm 0 W/m2
04:33 13.3 °C 7.9 °C 1012.5 hPa Calm     70% 0.0 mm 0 W/m2
04:38 13.4 °C 8 °C 1012.5 hPa Calm     70% 0.0 mm 0 W/m2
04:43 13.4 °C 7.8 °C 1012.5 hPa Calm     69% 0.0 mm 0 W/m2
04:48 13.5 °C 7.9 °C 1012.5 hPa SSE 1.4 km/h 4.8 km/h 69% 0.0 mm 0 W/m2
04:53 13.5 °C 7.9 °C 1012.5 hPa SSE 1.4 km/h 1.6 km/h 69% 0.0 mm 0 W/m2
04:58 13.4 °C 8 °C 1012.5 hPa Calm   3.2 km/h 70% 0.0 mm 0 W/m2
05:03 13.4 °C 8 °C 1012.5 hPa Calm     70% 0.0 mm 0 W/m2
05:08 13.3 °C 7.9 °C 1012.5 hPa Calm     70% 0.0 mm 0 W/m2
05:13 13.3 °C 7.9 °C 1012.5 hPa Calm     70% 0.0 mm 0 W/m2
05:18 13.3 °C 8.2 °C 1012.5 hPa Calm     71% 0.0 mm 0 W/m2
05:23 13.4 °C 8.2 °C 1012.5 hPa Calm     71% 0.0 mm 0 W/m2
05:28 13.4 °C 8.2 °C 1012.5 hPa Calm     71% 0.0 mm 0 W/m2
05:33 13.4 °C 8.2 °C 1012.5 hPa Calm     71% 0.0 mm 0 W/m2
05:38 13.4 °C 8.2 °C 1012.9 hPa Calm     71% 0.0 mm 0 W/m2
05:43 13.4 °C 8.2 °C 1012.5 hPa Calm     71% 0.0 mm 7 W/m2
05:48 13.3 °C 8.4 °C 1012.5 hPa Calm     72% 0.0 mm 9 W/m2
05:53 13.3 °C 8.6 °C 1012.5 hPa Calm     73% 0.0 mm 11 W/m2
05:58 13.3 °C 8.6 °C 1012.5 hPa Calm     73% 0.0 mm 12 W/m2
06:03 13.2 °C 8.5 °C 1012.9 hPa Calm     73% 0.0 mm 11 W/m2
06:08 13.2 °C 8.7 °C 1012.9 hPa Calm     74% 0.0 mm 12 W/m2
06:13 13.1 °C 8.6 °C 1012.9 hPa Calm     74% 0.0 mm 18 W/m2
06:18 13.1 °C 8.6 °C 1012.9 hPa Calm     74% 0.0 mm 16 W/m2
06:23 13 °C 8.7 °C 1012.9 hPa Calm     75% 0.0 mm 21 W/m2
06:28 13 °C 8.9 °C 1012.9 hPa Calm     76% 0.0 mm 23 W/m2
06:33 12.9 °C 8.8 °C 1012.9 hPa Calm     76% 0.0 mm 26 W/m2
06:38 12.9 °C 9 °C 1012.9 hPa Calm     77% 0.0 mm 28 W/m2
06:43 12.9 °C 9 °C 1012.9 hPa Calm     77% 0.0 mm 32 W/m2
06:48 12.9 °C 9.2 °C 1012.9 hPa Calm     78% 0.0 mm 33 W/m2
06:53 13.1 °C 9.2 °C 1012.9 hPa Calm     77% 0.0 mm 35 W/m2
06:58 13.2 °C 9.3 °C 1012.9 hPa Calm     77% 0.0 mm 37 W/m2
07:03 13.3 °C 9.2 °C 1012.9 hPa Calm     76% 0.0 mm 39 W/m2
07:08 13.4 °C 8.9 °C 1012.9 hPa Calm     74% 0.0 mm 39 W/m2
07:13 13.7 °C 9.1 °C 1012.9 hPa SSE 1.4 km/h 3.2 km/h 74% 0.0 mm 40 W/m2
07:18 13.9 °C 8.7 °C 1012.9 hPa SSE 1.4 km/h 1.6 km/h 71% 0.0 mm 40 W/m2
07:23 14.2 °C 9 °C 1012.9 hPa ENE 4.7 km/h 4.8 km/h 71% 0.0 mm 42 W/m2
07:28 14.4 °C 9 °C 1012.9 hPa East 3.2 km/h 4.8 km/h 70% 0.0 mm 42 W/m2
07:33 14.6 °C 9.2 °C 1012.9 hPa Calm   3.2 km/h 70% 0.0 mm 42 W/m2
07:38 14.7 °C 9.1 °C 1012.9 hPa ESE 3.2 km/h 4.8 km/h 69% 0.0 mm 44 W/m2
07:43 14.8 °C 9.2 °C 1012.9 hPa Calm   1.6 km/h 69% 0.0 mm 216 W/m2
07:48 14.9 °C 9 °C 1012.9 hPa Calm   6.4 km/h 68% 0.0 mm 239 W/m2
07:53 15.3 °C 9.4 °C 1012.9 hPa Calm   3.2 km/h 68% 0.0 mm 251 W/m2
07:58 15.8 °C 9.5 °C 1012.9 hPa Calm   6.4 km/h 66% 0.0 mm 221 W/m2
08:03 16.2 °C 9.4 °C 1012.9 hPa East 1.4 km/h 3.2 km/h 64% 0.0 mm 139 W/m2
08:08 16.5 °C 9.4 °C 1012.9 hPa ENE 4.7 km/h 4.8 km/h 63% 0.0 mm 77 W/m2
08:13 16.8 °C 9.2 °C 1012.9 hPa East 3.2 km/h 9.7 km/h 61% 0.0 mm 54 W/m2
08:18 17.2 °C 9.9 °C 1012.9 hPa East 3.2 km/h 4.8 km/h 62% 0.0 mm 54 W/m2
08:24 17.3 °C 9.9 °C 1012.9 hPa Calm   9.7 km/h 62% 0.0 mm 54 W/m2
08:29 17.4 °C 9.8 °C 1012.9 hPa Calm   3.2 km/h 61% 0.0 mm 54 W/m2
08:34 17.8 °C 10.4 °C 1012.9 hPa ENE 1.4 km/h 4.8 km/h 62% 0.0 mm 54 W/m2
08:39 18.1 °C 10.2 °C 1012.9 hPa North 1.4 km/h 6.4 km/h 60% 0.0 mm 54 W/m2
08:44 18.2 °C 10.1 °C 1012.9 hPa East 4.7 km/h 8 km/h 59% 0.0 mm 56 W/m2
08:49 18.3 °C 10.1 °C 1012.9 hPa NE 3.2 km/h 4.8 km/h 59% 0.0 mm 58 W/m2
08:54 18.5 °C 9.8 °C 1013.2 hPa NE 3.2 km/h 8 km/h 57% 0.0 mm 58 W/m2
08:59 18.7 °C 9.7 °C 1013.2 hPa ESE 3.2 km/h 6.4 km/h 56% 0.0 mm 74 W/m2
09:04 18.7 °C 10 °C 1013.2 hPa SSW 3.2 km/h 3.2 km/h 57% 0.0 mm 241 W/m2
09:09 18.7 °C 9.7 °C 1013.2 hPa ENE 3.2 km/h 9.7 km/h 56% 0.0 mm 399 W/m2
09:14 18.8 °C 9.8 °C 1012.9 hPa ESE 1.4 km/h 9.7 km/h 56% 0.0 mm 459 W/m2
09:19 18.9 °C 9.9 °C 1012.9 hPa East 3.2 km/h 4.8 km/h 56% 0.0 mm 476 W/m2
09:24 18.9 °C 10.2 °C 1013.2 hPa NE 4.7 km/h 9.7 km/h 57% 0.0 mm 494 W/m2
09:29 19 °C 10 °C 1013.2 hPa NE 1.4 km/h 3.2 km/h 56% 0.0 mm 510 W/m2
09:34 19.2 °C 10.2 °C 1013.2 hPa ENE 1.4 km/h 4.8 km/h 56% 0.0 mm 526 W/m2
09:39 19.4 °C 10.7 °C 1013.2 hPa ESE 3.2 km/h 4.8 km/h 57% 0.0 mm 538 W/m2
09:44 19.5 °C 10.5 °C 1013.2 hPa NE 3.2 km/h 4.8 km/h 56% 0.0 mm 548 W/m2
09:49 19.7 °C 10.7 °C 1013.2 hPa East 4.7 km/h 6.4 km/h 56% 0.0 mm 561 W/m2
09:54 19.7 °C 10.7 °C 1013.2 hPa ENE 1.4 km/h 4.8 km/h 56% 0.0 mm 529 W/m2
09:59 19.9 °C 11.1 °C 1013.2 hPa East 3.2 km/h 4.8 km/h 57% 0.0 mm 522 W/m2
10:04 20.1 °C 11.3 °C 1013.2 hPa ESE 3.2 km/h 9.7 km/h 57% 0.0 mm 77 W/m2
10:09 20.3 °C 11.2 °C 1013.2 hPa ESE 4.7 km/h 11.3 km/h 56% 0.0 mm 162 W/m2
10:14 20.5 °C 11.4 °C 1013.2 hPa ESE 9.7 km/h 9.7 km/h 56% 0.0 mm 621 W/m2
10:19 20.6 °C 11.5 °C 1013.2 hPa East 3.2 km/h 6.4 km/h 56% 0.0 mm 599 W/m2
10:24 20.8 °C 11.7 °C 1013.2 hPa ENE 4.7 km/h 8 km/h 56% 0.0 mm 622 W/m2
10:29 20.9 °C 12.1 °C 1013.2 hPa ENE 1.4 km/h 3.2 km/h 57% 0.0 mm 642 W/m2
10:34 21.2 °C 12.1 °C 1013.2 hPa East 3.2 km/h 9.7 km/h 56% 0.0 mm 663 W/m2
10:39 21.4 °C 12.3 °C 1013.2 hPa East 3.2 km/h 9.7 km/h 56% 0.0 mm 673 W/m2
10:44 21.4 °C 12.8 °C 1013.2 hPa East 9.7 km/h 11.3 km/h 58% 0.0 mm 689 W/m2
10:49 21.6 °C 12.4 °C 1013.2 hPa ESE 1.4 km/h 4.8 km/h 56% 0.0 mm 708 W/m2
10:54 21.8 °C 12.9 °C 1013.2 hPa East 1.4 km/h 4.8 km/h 57% 0.0 mm 715 W/m2
10:59 22.1 °C 12.9 °C 1013.2 hPa ESE 3.2 km/h 6.4 km/h 56% 0.0 mm 721 W/m2
11:04 22 °C 12.8 °C 1013.2 hPa East 1.4 km/h 6.4 km/h 56% 0.0 mm 735 W/m2
11:09 22.1 °C 13.4 °C 1013.2 hPa ENE 4.7 km/h 9.7 km/h 58% 0.0 mm 729 W/m2
11:14 22.3 °C 13.6 °C 1013.2 hPa East 9.7 km/h 11.3 km/h 58% 0.0 mm 737 W/m2
11:19 22.5 °C 13.8 °C 1013.2 hPa ESE 1.4 km/h 6.4 km/h 58% 0.0 mm 756 W/m2
11:24 22.6 °C 13.6 °C 1013.2 hPa North 3.2 km/h 6.4 km/h 57% 0.0 mm 765 W/m2
11:29 22.7 °C 13.7 °C 1013.2 hPa WSW 4.7 km/h 9.7 km/h 57% 0.0 mm 740 W/m2
11:34 22.7 °C 14.3 °C 1013.2 hPa East 1.4 km/h 6.4 km/h 59% 0.0 mm 800 W/m2
11:39 23 °C 14 °C 1013.2 hPa ENE 6.4 km/h 12.9 km/h 57% 0.0 mm 782 W/m2
11:44 23.1 °C 14.6 °C 1013.2 hPa East 6.4 km/h 9.7 km/h 59% 0.0 mm 800 W/m2
11:49 23.2 °C 14.7 °C 1013.2 hPa East 3.2 km/h 9.7 km/h 59% 0.0 mm 696 W/m2
11:54 23.5 °C 14.8 °C 1013.2 hPa NE 3.2 km/h 6.4 km/h 58% 0.0 mm 798 W/m2
11:59 23.6 °C 14.3 °C 1013.2 hPa East 1.4 km/h 9.7 km/h 56% 0.0 mm 828 W/m2
12:04 23.7 °C 14.7 °C 1013.2 hPa East 4.7 km/h 12.9 km/h 57% 0.0 mm 824 W/m2
12:09 23.8 °C 14.8 °C 1013.2 hPa ENE 4.7 km/h 8 km/h 57% 0.0 mm 842 W/m2
12:14 23.9 °C 15.1 °C 1012.9 hPa NE 7.9 km/h 8 km/h 58% 0.0 mm 789 W/m2
12:19 24.3 °C 15.8 °C 1013.2 hPa East 3.2 km/h 6.4 km/h 59% 0.0 mm 865 W/m2
12:24 24.6 °C 15.5 °C 1012.9 hPa Calm   4.8 km/h 57% 0.0 mm 810 W/m2
12:29 24.9 °C 16.3 °C 1012.9 hPa East 6.4 km/h 11.3 km/h 59% 0.0 mm 816 W/m2
12:34 25.1 °C 16 °C 1013.2 hPa NE 4.7 km/h 6.4 km/h 57% 0.0 mm 870 W/m2
12:39 24.9 °C 15.5 °C 1013.2 hPa NNE 3.2 km/h 6.4 km/h 56% 0.0 mm 882 W/m2
12:44 24.8 °C 15.7 °C 1013.2 hPa East 4.7 km/h 4.8 km/h 57% 0.0 mm 891 W/m2
12:49 25 °C 15.9 °C 1012.9 hPa ESE 6.4 km/h 6.4 km/h 57% 0.0 mm 861 W/m2
12:54 25.1 °C 15.7 °C 1012.9 hPa NNE 6.4 km/h 11.3 km/h 56% 0.0 mm 854 W/m2
12:59 25.3 °C 16.2 °C 1012.9 hPa East 6.4 km/h 9.7 km/h 57% 0.0 mm 642 W/m2
13:04 25.4 °C 16 °C 1012.9 hPa East 1.4 km/h 11.3 km/h 56% 0.0 mm 896 W/m2
13:09 25.5 °C 16.1 °C 1012.9 hPa North 6.4 km/h 12.9 km/h 56% 0.0 mm 891 W/m2
13:14 25.4 °C 16 °C 1012.9 hPa ESE 4.7 km/h 12.9 km/h 56% 0.0 mm 895 W/m2
13:19 25.4 °C 16.5 °C 1012.9 hPa East 3.2 km/h 11.3 km/h 58% 0.0 mm 916 W/m2
13:24 25.6 °C 16.4 °C 1012.9 hPa ESE 4.7 km/h 11.3 km/h 57% 0.0 mm 946 W/m2
13:29 25.6 °C 16.2 °C 1012.9 hPa ESE 6.4 km/h 6.4 km/h 56% 0.0 mm 946 W/m2
13:34 25.6 °C 16.4 °C 1012.9 hPa ESE 11.1 km/h 12.9 km/h 57% 0.0 mm 202 W/m2
13:39 25.3 °C 16.4 °C 1012.9 hPa WSW 1.4 km/h 4.8 km/h 58% 0.0 mm 250 W/m2
13:44 25.4 °C 16.5 °C 1012.9 hPa NNE 1.4 km/h 6.4 km/h 58% 0.0 mm 986 W/m2
13:49 25.8 °C 16.6 °C 1012.9 hPa SE 4.7 km/h 6.4 km/h 57% 0.0 mm 257 W/m2
13:54 25.9 °C 16.7 °C 1012.9 hPa East 7.9 km/h 9.7 km/h 57% 0.0 mm 1049 W/m2
13:59 26.2 °C 16.7 °C 1012.9 hPa ENE 1.4 km/h 11.3 km/h 56% 0.0 mm 947 W/m2
14:04 26.1 °C 16.6 °C 1012.9 hPa East 3.2 km/h 12.9 km/h 56% 0.0 mm 1037 W/m2
14:09 25.8 °C 16.4 °C 1012.9 hPa East 3.2 km/h 6.4 km/h 56% 0.0 mm 239 W/m2
14:14 25.7 °C 16.5 °C 1012.9 hPa Calm   6.4 km/h 57% 0.0 mm 311 W/m2
14:19 25.6 °C 16.7 °C 1012.9 hPa WSW 1.4 km/h 3.2 km/h 58% 0.0 mm 1102 W/m2
14:24 25.9 °C 17.3 °C 1012.9 hPa East 11.1 km/h 12.9 km/h 59% 0.0 mm 1116 W/m2
14:29 26.3 °C 17.1 °C 1012.9 hPa East 3.2 km/h 6.4 km/h 57% 0.0 mm 1053 W/m2
14:34 26.6 °C 16.5 °C 1012.9 hPa SE 4.7 km/h 11.3 km/h 54% 0.0 mm 227 W/m2
14:39 26.4 °C 16.6 °C 1012.9 hPa SSE 3.2 km/h 3.2 km/h 55% 0.0 mm 264 W/m2
14:44 26.2 °C 17 °C 1012.9 hPa North 3.2 km/h 4.8 km/h 57% 0.0 mm 1106 W/m2
14:49 26.4 °C 16.9 °C 1012.9 hPa ENE 4.7 km/h 8 km/h 56% 0.0 mm 1032 W/m2
14:54 26.8 °C 17 °C 1012.9 hPa East 6.4 km/h 12.9 km/h 55% 0.0 mm 998 W/m2
14:59 26.9 °C 16.5 °C 1012.9 hPa WNW 4.7 km/h 6.4 km/h 53% 0.0 mm 983 W/m2
15:04 27 °C 16.6 °C 1012.9 hPa West 4.7 km/h 12.9 km/h 53% 0.0 mm 1048 W/m2
15:09 27.1 °C 16.7 °C 1012.9 hPa ENE 3.2 km/h 8 km/h 53% 0.0 mm 594 W/m2
15:14 27.1 °C 16.7 °C 1012.9 hPa ENE 3.2 km/h 4.8 km/h 53% 0.0 mm 192 W/m2
15:19 26.6 °C 16.5 °C 1012.9 hPa ESE 3.2 km/h 8 km/h 54% 0.0 mm 213 W/m2
15:24 26.7 °C 16.6 °C 1012.9 hPa Calm   9.7 km/h 54% 0.0 mm 1078 W/m2
15:29 26.9 °C 16.8 °C 1012.9 hPa East 4.7 km/h 14.5 km/h 54% 0.0 mm 473 W/m2
15:34 27.1 °C 16.4 °C 1012.9 hPa Calm   4.8 km/h 52% 0.0 mm 1000 W/m2
15:39 27.3 °C 16.6 °C 1012.9 hPa Calm   12.9 km/h 52% 0.0 mm 1016 W/m2
15:44 27.3 °C 16.6 °C 1012.9 hPa East 4.7 km/h 6.4 km/h 52% 0.0 mm 185 W/m2
15:49 26.9 °C 16.2 °C 1012.9 hPa SE 3.2 km/h 6.4 km/h 52% 0.0 mm 202 W/m2
15:54 26.7 °C 16.3 °C 1012.9 hPa SE 7.9 km/h 8 km/h 53% 0.0 mm 227 W/m2
15:59 26.4 °C 16 °C 1012.9 hPa East 16.3 km/h 16.1 km/h 53% 0.0 mm 199 W/m2
16:04 26.2 °C 16.2 °C 1012.5 hPa East 13 km/h 14.5 km/h 54% 0.0 mm 135 W/m2
16:09 25.9 °C 16.2 °C 1012.9 hPa South 16.1 km/h 16.1 km/h 55% 0.0 mm 125 W/m2
16:14 25.6 °C 15.6 °C 1012.9 hPa North 1.4 km/h 3.2 km/h 54% 0.0 mm 144 W/m2
16:19 25.5 °C 15.5 °C 1012.5 hPa WNW 1.4 km/h 6.4 km/h 54% 0.0 mm 158 W/m2
16:24 25.4 °C 15.7 °C 1012.9 hPa East 1.4 km/h 3.2 km/h 55% 0.0 mm 151 W/m2
16:29 25.4 °C 15.7 °C 1012.5 hPa ENE 1.4 km/h 6.4 km/h 55% 0.0 mm 134 W/m2
16:34 25.3 °C 15.6 °C 1012.5 hPa ENE 3.2 km/h 9.7 km/h 55% 0.0 mm 139 W/m2
16:39 25.2 °C 16.1 °C 1012.9 hPa NE 1.4 km/h 1.6 km/h 57% 0.0 mm 121 W/m2
16:44 25.2 °C 15.8 °C 1012.9 hPa Calm   3.2 km/h 56% 0.0 mm 98 W/m2
16:49 25.1 °C 16.3 °C 1012.9 hPa Calm   1.6 km/h 58% 0.0 mm 86 W/m2
16:54 24.9 °C 15.8 °C 1012.9 hPa NE 4.7 km/h 4.8 km/h 57% 0.0 mm 79 W/m2
16:59 24.9 °C 16.9 °C 1012.9 hPa WSW 3.2 km/h 3.2 km/h 61% 0.0 mm 77 W/m2
17:04 24.6 °C 17.1 °C 1012.9 hPa West 1.4 km/h 4.8 km/h 63% 0.0 mm 72 W/m2
17:09 24.3 °C 17.5 °C 1012.9 hPa WSW 3.2 km/h 3.2 km/h 66% 0.0 mm 70 W/m2
17:14 23.8 °C 17.5 °C 1012.9 hPa Calm   3.2 km/h 68% 0.0 mm 70 W/m2
17:19 23.6 °C 17.3 °C 1012.9 hPa WNW 1.4 km/h 3.2 km/h 68% 0.0 mm 70 W/m2
17:24 23.4 °C 17.8 °C 1012.9 hPa Calm     71% 0.0 mm 65 W/m2
17:29 23.4 °C 18.1 °C 1013.2 hPa WNW 1.4 km/h 1.6 km/h 72% 0.0 mm 49 W/m2
17:34 23.2 °C 18.3 °C 1013.2 hPa West 1.4 km/h 6.4 km/h 74% 0.0 mm 35 W/m2
17:39 22.4 °C 18.2 °C 1013.5 hPa West 6.4 km/h 12.9 km/h 77% 4.6 mm 32 W/m2
17:44 21.3 °C 17.9 °C 1013.5 hPa Calm   4.8 km/h 81% 7.1 mm 37 W/m2
17:49 20.7 °C 17.9 °C 1013.2 hPa SSW 1.4 km/h 12.9 km/h 84% 8.1 mm 49 W/m2
17:54 20.2 °C 18 °C 1013.2 hPa SW 1.4 km/h 4.8 km/h 87% 8.4 mm 56 W/m2
17:59 19.8 °C 17.9 °C 1013.2 hPa WSW 3.2 km/h 3.2 km/h 89% 8.4 mm 77 W/m2
18:04 19.6 °C 17.9 °C 1013.2 hPa WSW 4.7 km/h 4.8 km/h 90% 8.4 mm 109 W/m2
18:09 19.3 °C 17.6 °C 1013.2 hPa Calm   4.8 km/h 90% 8.4 mm 163 W/m2
18:14 19.3 °C 17.8 °C 1013.2 hPa WSW 1.4 km/h 6.4 km/h 91% 8.4 mm 218 W/m2
18:19 19.4 °C 18.1 °C 1013.2 hPa WSW 4.7 km/h 6.4 km/h 92% 8.4 mm 290 W/m2
18:24 19.7 °C 18.4 °C 1013.2 hPa West 1.4 km/h 6.4 km/h 92% 8.4 mm 181 W/m2
18:29 19.9 °C 18.4 °C 1013.2 hPa West 3.2 km/h 8 km/h 91% 8.4 mm 190 W/m2
18:34 20.1 °C 18.4 °C 1013.2 hPa West 3.2 km/h 4.8 km/h 90% 8.4 mm 151 W/m2
18:39 20.1 °C 18 °C 1012.9 hPa West 3.2 km/h 4.8 km/h 88% 3.8 mm 163 W/m2
18:44 20.1 °C 18 °C 1012.9 hPa Calm   9.7 km/h 88% 0.8 mm 156 W/m2
Juneau County Weather
Compliments of Weather Underground - 2 mb